indice_tiempo,agricultura_ganaderia_caza_silvicultura,pesca,explotacion_minas_canteras,industria_manufacturera,suministro_electricidad_gas_agua,construccion,sectores_productores_bienes,comercio_mayorista_minorista_reparaciones,hoteles_restaurantes,transporte_almacenamiento_comunicaciones,intermediacion_financiera,actividades_inmobiliarias_empresariales_alquiler,admin_publica_planes_seguridad_social_afiliacion_obligatoria,ensenianza,servicios_sociales_salud,otras_actividades_servicios_comunitarias_sociales_personales,hogares_privs_servicio_domestico,sectores_productores_servicios,valor_agregado_bruto_precios_basicos,impuesto_valor_agregado,derechos_importacion,impuestos_productos_netos_subsidios,producto_interno_bruto_precios_mercado
2004-01-01,99.72910878788804,92.11663680357078,90.17677833192292,95.87046588918427,88.29010450132643,93.61997929578591,95.15797954689197,97.3891027557504,125.75897363302863,98.90490945377356,90.99149601331872,93.78808541515275,94.70423581801354,97.3030518074192,93.23735887615379,97.55613109910946,102.06034558619325,96.83653133212061,96.12037765058645,95.6742194664092,99.79983740422568,87.4427182797044,95.40074225385659
2004-04-01,101.54299960092239,100.88767567811479,97.88098158351696,98.78485307026946,101.3355869412194,98.46154608826943,99.65951313760519,99.11872121263772,95.03400388207385,99.96567593290503,109.54115885653542,97.82564256380046,96.21538497610639,94.64065303419396,98.73079674411245,101.025534997805,99.04883320460232,98.9565214275975,99.28796143486885,98.61129919097608,98.43198992531124,96.81917893571178,99.0480055142365
2004-07-01,97.5531711933914,112.5372251626372,105.12411348197408,101.30261668119773,106.21186485811376,101.07555565308989,101.53309247105824,101.48762062203345,88.82825643271468,99.71737899070123,102.2771792290505,101.50129386417872,101.7134773180417,102.48512311022829,102.07136176432331,98.99646514609378,98.14380721237738,100.89748648611038,101.16711733312162,101.03081053075387,102.28522502648588,105.68357907258581,101.51935416508806
2004-10-01,99.2603600942125,94.52065451545423,106.68069344506922,103.62310539256656,103.94286551336818,106.70426626225552,103.50715137856864,101.93413317564328,89.28671523918067,101.29967566640788,97.55938973305842,106.32536449054608,107.04530033810329,105.25630931742249,105.58372653040107,102.34586818273992,100.79826900334162,103.11855494142029,103.2832998947792,104.42987773410806,99.33970132591487,110.2575219066673,103.87172345435356
2005-01-01,99.48950838161424,146.88483368151435,99.4194259708928,105.42201513717606,103.36120370427085,113.46141534906558,104.36041476506685,105.24254551537476,116.40203669124595,103.42426218144377,111.20783265411403,86.70565642731593,112.36473134920857,110.02438790810847,103.35858539068268,106.78193772234856,110.15085274370517,102.75978402873851,103.43949215719148,103.63401147749818,96.45820100857284,104.19673545717616,103.46450744837988
2005-04-01,77.52678565107036,128.3769407189677,113.92225957455221,106.84976227086563,114.80878081750161,121.57770090553794,98.02025614241518,106.84568662832747,109.64742524654174,105.61431319429111,111.11715900381105,109.90761511299955,114.90641210342383,114.46351218461078,111.09467740913817,111.02421690445587,108.86685876005838,109.4408907391885,103.86776580204446,103.59306429403905,94.87206930755822,108.56609995511195,104.14386138007305
2005-07-01,117.71416359128924,117.54279604720269,122.6027452606508,108.33134660724298,121.51729807247544,125.27926914918173,114.10024646595505,110.0260647229856,121.7664734158691,105.88085004500441,113.43930216357528,117.70972027733599,122.21829649221579,123.12529253284193,113.42890757202755,112.1144006721307,108.77602069122247,114.08265018486163,114.08993812712833,113.40577375039655,99.97945095556292,123.86841029369799,114.67303166577997
2005-10-01,120.71235390023365,100.00347431297409,140.06070992291302,112.07841832055468,119.41394436045347,127.86471729369246,118.8562138074225,113.54713797891229,124.01065376578242,109.09639963698451,116.63793650083511,122.33393464062567,133.67753491015796,133.17939696183535,121.44660153049473,118.47046489231073,109.28357139529781,119.32891694346984,119.13179078953682,117.78580327822534,104.4912899425716,125.12615847259684,119.37802240824655
2006-01-01,115.45024288755137,131.95001019614102,151.23250673582962,114.82303041719177,111.18705618052007,140.55421074814078,122.23918481661772,117.34723539514916,140.96712090501788,114.03649560698585,119.74777280732378,114.12450377148468,138.4241747470628,137.41201731031808,129.14371435539636,120.07128839108663,120.7305922561227,121.22038525556971,121.64673026392092,118.84842046587131,115.6946095045204,114.91059277155682,120.89124468903248
2006-04-01,83.59258732004166,106.30161883737182,163.78323060098083,117.32974676736596,121.21493035754176,147.56573309944986,112.77469478134788,119.24010851612539,129.95302755865404,115.57000841375688,120.34116648929431,118.73136025345697,146.34767457176775,145.8399919359697,137.14594545525983,127.03541094308942,121.57745529751003,124.55406925481505,118.93287374663804,114.42843785460227,108.76825586529057,118.61133232201739,118.55026443444198
2006-07-01,113.7180380629991,120.89662140493257,166.37983395595495,120.50375980276331,126.83876314775785,154.61528830434176,129.08002240009318,123.61087775907573,139.52225343908728,115.89441096488171,119.02289263748949,126.08366478478605,148.6289234791586,150.60724022705554,140.843608847361,129.65509161621586,125.26438428037659,128.55288829133718,128.7728710581159,125.22084802261391,113.95904759051633,144.21954747246158,129.54293899668554
2006-10-01,130.70311378790072,134.10226450061256,159.67360301538213,122.35390783158326,117.64718787371382,160.26585550736138,131.89905996724255,126.10191251712118,137.80501404977528,116.89490223525989,127.29315916221002,130.37347549376616,162.78586757170095,159.5417501034224,146.42683910907493,136.8518960712035,135.68135078424973,133.36104947742126,132.75601328361657,128.99764354671333,117.66035183952414,143.31445301766948,133.16584321400185
2007-01-01,131.42175786534884,155.81268700255077,144.83966442946152,124.25627209939765,122.66224442681215,164.87556130329963,132.51827056109528,130.90660633546847,158.74564842331148,122.1724551463453,127.29883603574336,129.4121601496176,164.60684296150322,165.708388979465,155.9915036921153,136.82049662904708,142.2649322204325,137.04515113689857,135.1919267313409,128.3650770051035,126.8443699721399,130.23306631030835,134.24494558938827
2007-04-01,101.92224788931303,104.68368495679815,149.66908742896214,127.90657548299474,148.60514487877558,183.74328936689557,124.99121352940728,134.8452161765828,151.11936114129918,126.81714278607534,128.1131705966398,136.64703021929304,180.50421192750093,178.04574732068806,172.30649735413598,142.97361708102844,144.81843249300695,143.25842860656496,134.52474864849927,129.57664668235574,121.21444472413178,133.9362111658926,134.0531904427567
2007-07-01,149.9147967367364,103.3034012685478,160.0472029520582,134.72509601998402,160.62238067459472,197.34004283249055,147.61022367156403,147.07100603914475,166.40032842277517,128.5132724154781,135.54808058454287,145.1689286172703,191.67566603849758,188.94577635216407,174.25145228622662,152.50443108679855,154.74784652012877,152.07455815227323,150.26219194454296,145.5122679458991,125.14682315229888,151.41597978095703,149.7486059916207
2007-10-01,188.65920006473763,149.88046753498824,174.94337248245074,140.11257907562842,141.26253139252373,208.25792954867273,158.31769213179788,149.0106952681608,170.48564091812315,133.97531295961906,145.12119732157686,156.16414350125325,206.05020747640435,201.12676558999607,183.11310737599368,161.9381239259334,163.54305468786626,159.5050071136123,159.01943626845724,148.32556879008374,136.55651502029556,172.0164976306991,158.98950800785983
2008-01-01,187.01015408527843,206.0000463602933,172.782132402173,149.59845983181773,168.60895486331293,223.3015581650839,167.93956213751835,161.44123218601055,202.15894171686716,143.46737200503944,146.37919774566802,150.3275919502635,217.20510386689793,219.36108337416283,209.32226702610367,162.7568628438986,172.4963684308247,167.79623184794175,167.85408636864517,154.8126777291835,141.38179239991828,177.82340389284437,167.39464839027926
2008-04-01,147.56867449455152,119.04029510638871,170.97370126095853,156.94974762133188,160.2427698535663,244.4469485140018,161.35649892637025,171.80806864736994,199.03076778636864,155.4043705834254,161.7770130817021,160.95893437723203,237.58354148618568,234.0266459451795,227.32270681120673,176.86625630213922,184.9914710205972,179.90682498314305,171.26221920176908,161.83119022937794,139.05685820520947,175.56348140682692,170.6317156969208
2008-07-01,177.14160529239174,127.25550367331348,172.38085202329455,161.84324777918735,160.3463652086905,249.33883846270487,173.88661175611352,176.6094339927501,221.2765282475449,154.16390813568944,168.1453368717087,174.85865449545238,245.26343519771535,245.18376453052454,234.46935783198703,187.3964650557835,200.8583174707245,187.88287902182785,182.2064651474485,172.31473209859053,138.66644957443197,206.71491631740366,182.9260229440088
2008-10-01,190.35656263491992,213.54467246028608,179.2970753891894,165.10589080552523,134.65169722521478,252.15876568313772,177.8907117411004,179.92620930051442,219.68644992924183,157.26667988569974,179.47066360454806,183.13171258576367,277.87186602383724,265.29529947826,244.02352736803752,203.89995842349734,206.5726852690045,197.73273468560615,189.8809567119095,176.43140807461805,155.9359803736973,215.43253297732767,190.49214218662354
2009-01-01,146.13452869947113,211.2197841313027,187.83336773969512,169.51743705918147,157.0605625300113,259.84630266558304,176.9873581121014,185.41846032121748,232.9106119296772,165.42270028741487,172.74888651641484,180.87834865602395,278.53589546427503,277.34786286760726,258.3841678848278,203.11069787181532,215.19301110107065,202.17913720099241,192.52855602231836,182.35297868879766,159.5240797183808,201.7071796803676,192.25678602777467
2009-04-01,156.50347383932814,206.66342996546425,195.30978488302276,171.95186122714864,145.67732708476868,271.70619489110464,177.68227713906137,190.0185487186038,219.08485702806547,169.68107904394054,187.106066578961,192.49237034513033,302.6546735529781,293.55303536367245,283.33186543860575,213.67488384925366,228.59089269306656,212.191596471191,197.64851796585134,185.3243999590007,162.57023968864203,220.15259368631246,198.26824861874763
2009-07-01,181.63439458689137,110.7199395027005,208.2013671586018,175.7409424146283,193.71749600847124,283.83693648398696,191.53465671644682,196.68400879357338,233.61902950911175,170.91423960110345,193.6062656384396,205.70384701499455,294.48704811552767,293.2754265287475,284.6387660394553,222.41924688369554,236.25848786383946,218.16078191314668,207.76447834109194,193.28402670498215,152.03501076729572,233.1574415512514,207.97599548578103
2009-10-01,237.77297407771988,202.3933902388498,228.57730273612984,180.89509103866172,169.44555153918733,295.90452507626526,205.03160445594202,203.40002598736038,237.2762763448042,175.69627770408565,202.66077759828235,215.65855179075913,339.4189787958316,298.98670947058366,294.3613077193926,234.25745769320338,258.24827752789463,228.95709980120697,219.60126376112242,202.32980627127768,156.88002457504075,260.12804721683005,220.76789225736832
2010-01-01,234.97574020695683,257.17698212707944,243.83337887781272,204.2664209577349,166.25487463534637,316.6864724325035,223.92893547168424,222.20945889643602,276.6277284694458,192.98176665719856,205.38481742480565,209.33171463981583,330.6423929863319,310.4028547042348,316.7755278786106,239.10951773715453,256.676650323078,238.15009811305842,232.62181168385501,218.77401751254135,162.76588627881887,246.10257070383358,231.98837964860584
2010-04-01,161.0531544574032,232.28213718285951,248.82560765227777,209.36956061756268,182.16961677485511,335.692037533378,203.3438334382903,229.1337289526218,272.6442570178476,197.74568662600583,224.977886325835,227.68603904213793,361.10898554390826,334.56588613955506,349.3645382169104,252.14872835876614,276.71531076295753,251.86998539656688,229.32194068834244,221.18439360094436,160.96008568873341,250.5645975697645,229.7936810442736
2010-07-01,298.5622229669269,164.9470481135876,252.3404076551365,213.87906762413834,205.576398110904,356.35513819199,243.2950866094476,236.32207178043748,300.18251678501196,201.0391577900717,241.87505857397568,243.35101314051596,381.555942261278,354.8104583014987,361.11680869316876,269.2126123825859,296.10667706283306,264.4024155768452,256.035298224608,241.05752460594613,170.61165475771782,285.53721280390556,256.19508674574274
2010-10-01,359.1406150155038,267.07295199268566,281.83329804436124,224.29668971693627,182.57380178758592,374.83663020325395,263.2187912879643,245.03799084044232,310.0147829370703,209.7155307261321,256.02211112850404,256.58611065461514,443.79664731749904,360.61158453042816,374.57055539493336,299.4976245202932,309.44595410563437,279.7296905177645,273.214944915694,253.70469108898465,171.18534581318633,316.9630403687739,273.743094466418
2011-01-01,290.48111824581116,288.1699046691126,288.88175053285636,246.82907529962512,219.663644631015,419.41459204986415,275.69214214144864,261.2905534290375,358.18617254894093,227.42438838236922,244.53682466255225,256.13811727681707,439.33879056274236,428.75321289046946,404.64866231767036,301.83296684730215,338.45240014800765,294.43190765284305,287.06615583096715,262.68140522795204,179.03793054944853,302.9133518831995,285.18106379234223
2011-04-01,250.948228730421,244.06702182654834,296.68951754784683,254.989250105714,218.74069430881966,452.76855991994387,270.7900011811397,270.8667361414435,363.0101655491443,237.30472176668803,266.12147379343753,271.8310209881241,493.20878834295934,448.86039716487574,447.59368621093483,324.9915997730434,355.29042484840613,311.59075375813,293.2636500506706,271.7728676208765,169.6356442337792,313.1873703658899,291.92582963699965
2011-07-01,383.96835159595184,154.88356866126588,315.7812051290109,263.965330082073,235.007519312188,472.2550112411704,304.73055041476755,282.84196958454027,398.9700149110812,241.49083571027407,286.01199144398277,292.5084821983869,493.3396275619896,470.88871628182306,497.0988403452229,341.9502584636019,380.77469659348105,327.76434666244063,318.7357296694888,289.40529483074783,162.93930329298783,344.6183093425158,316.33852212784745
2011-10-01,381.3400580180924,176.50071114028125,344.11224128572917,272.65511002876906,210.2265169096328,498.9986122963111,314.53403686226267,293.77663830517105,409.8258696790241,252.31019183246954,304.6490870490561,320.9543120071613,557.8034246184202,472.8598887162429,526.575150136578,367.27520224453303,397.5466526539673,348.39000870007646,335.1854366330464,301.56472372264733,186.19598775351193,363.75119220499147,332.7866644769644
2012-01-01,282.59528419219487,397.4552854549318,357.7891924783761,298.75344278095895,217.55721484644238,523.458176706851,322.66142642478604,321.07031497024155,473.9091369881133,277.0027198841825,306.3643769537741,315.1811903680066,558.6735737081816,542.4445751673568,535.4362264361079,381.15999158510186,435.14436467583914,369.4797195072122,351.5155619645572,318.79360845017464,189.39091942469588,370.6644397471024,348.68566100114316
2012-04-01,308.8622517465446,164.62852434511254,359.4048399405014,307.28666745357447,250.96349461784956,554.5274054640125,330.0558971323801,335.20224992561555,476.1523318010611,284.90027240673237,339.1327497013934,336.28830177965756,636.6387107605738,566.4468281500461,537.7506337810893,409.6839662639481,456.82362730351826,390.6025802995173,364.92196618529624,340.2548800901945,192.2035264362857,381.2874555767511,362.7475661588982
2012-07-01,409.9459814986049,180.87929323585803,354.16230691743027,313.67329448610826,284.5695264985461,599.7979006070282,357.3346271776403,344.4714751798963,508.5077603258262,286.99710203192456,361.70076417479544,361.4866029256194,619.7248524145958,580.7615481435912,619.5475583079235,429.69670905902365,483.03723622347644,406.45498215124513,387.5057887716152,345.923993244793,216.39208062077714,418.6791328723315,384.5024871116417
2012-10-01,440.34234762620156,262.53688389461706,400.26336892841397,323.6301782335977,244.3677941309907,614.0996564538896,371.5200632282045,353.1070374193607,523.6075735349895,302.9893736764059,379.8524373349595,390.255629009656,700.4276514901571,584.7131816556158,691.0087509858223,453.8690778771439,515.051429242228,430.8821766666153,408.1222007889655,362.1122245803104,240.32781568421785,420.4789912146039,403.1597401404473
2013-01-01,365.68774859853295,333.61788759268006,402.0776768141415,366.89147660287153,314.37777128169756,685.6100954896486,401.0560874948557,394.94901659174855,581.2433900607201,331.1720095438668,380.26712374277776,389.1488559312644,694.7830434763251,654.1121884654268,641.684455422514,484.46954401590847,565.5277184454278,454.2742603230813,434.16320963115436,389.778380613146,275.44854219611744,408.89215645541805,426.67886619864726
2013-04-01,332.02314538104827,469.2059901176881,405.01698274648817,375.2875963775013,340.42168311808155,694.1395553158858,388.48193248094327,410.1209557198677,580.9319031365222,343.0480678057948,414.30804499392275,413.1818269724528,778.5406318053189,678.4254280114725,692.3460665380558,519.2969311324456,598.5481882894067,478.71057402157714,439.42887248169865,408.07450334973316,278.48355597728823,450.141820979807,436.2999824904661
2013-07-01,452.58655566725616,294.6615348939285,433.8208178686709,384.7390011214005,382.6126853410033,748.9198320289044,434.27026687800907,421.39591881662784,624.8313732055452,347.0541448596356,446.51698810495714,476.2480836086346,792.9352561077154,706.8028561707761,786.8641899713405,537.949940807286,622.121938530366,509.1173915339256,480.38522846622556,432.269288587482,290.7960669424775,509.3738458092199,476.3329325845123
2013-10-01,643.080019728242,330.1237983330652,509.6523134723834,406.21594626891016,316.07195752445676,797.7199545944288,481.6280797464869,449.6407107320561,684.0747030382734,370.139401056026,498.8156403370229,512.4567000284611,926.3922712991804,751.8750219687196,900.3990395453495,585.8924544732112,655.9977177957805,557.4657991135941,528.3423252740135,475.39200349995315,334.39363062402106,514.8766860780031,520.7910362708215
2014-01-01,530.1482202457267,419.6657736244342,704.1554588706315,508.1439993861747,379.5424049132418,861.50642586933,562.7864282429675,557.4681666561919,812.1444425625227,432.4841596740166,492.3105131559786,506.75386041757406,922.5311485002541,825.0148342602429,826.7437624954933,630.3017336703118,741.1293129301533,605.465356656692,589.3982606535945,543.3566122715965,398.8035460134291,592.9411316157793,583.7948262790837
2014-04-01,523.2577865153792,590.1205176773153,750.2620838976602,538.2464377639889,434.94993442167333,952.0162146363333,578.311501334877,596.536979602383,833.7846493875335,462.25383352954896,572.9705289087341,538.6026955086934,1054.1130034855114,888.2425430495049,906.055056128327,698.3110450657659,750.1626677451843,655.3841854669703,621.3257387900783,572.0837736980577,426.84048730573494,651.9256340594591,618.2977317117943
2014-07-01,767.3429189097463,474.0210771297627,759.4673521873946,553.0092194345098,530.8714211365541,1024.7487992603083,651.6256335008363,616.1953005232498,856.2027309720006,472.9479802571923,623.8486978186811,619.4631999874236,1072.5601004201076,925.0602524286439,1064.4495159747278,735.7958826055158,813.7214297978958,700.8245364673611,682.1854441162303,635.7550669004818,442.2448290181074,710.2948131121003,678.1936786305299
2014-10-01,769.8302771307718,473.46271498956287,776.7455094461072,573.9977256763575,419.2616064440251,1044.751659435057,659.9116471146632,643.4770305172362,910.2666765126992,498.33031290768963,696.0991607286655,675.6338886332967,1280.4432143239464,999.3615031610499,1249.7753920153498,789.3861091198052,875.3871795678368,767.7485564984037,726.9269607366251,691.3079410819427,480.1100299620585,827.0218497702521,729.6568321539007
2015-01-01,542.6015901571855,596.1664554814755,793.3058470070708,644.6642182878974,481.69099361552543,1098.480167536659,681.3476441155203,772.1221196036647,1080.7979220986913,543.0620617458499,691.11522084299,659.9018496346578,1230.2902191961846,1087.6403248646773,1197.7598819070201,846.1645174417908,963.4681068091995,815.7771418682087,765.6266779648444,698.7795864030536,492.5949761798293,760.0673625684916,756.9966805034876
2015-04-01,358.3968219722419,675.3330421881672,809.1929061210946,660.4798842608838,572.6693154831058,1143.7282773737345,593.9273319964713,821.184102775544,1121.7241275190747,572.6943390692318,698.4863774074086,718.6972110251708,1428.6721368028545,1184.3846555928887,1292.4565499908058,927.5702669345275,975.2114680687395,877.0336013253582,749.8393456609183,720.3658775389298,456.20267229122123,842.8862620562247,752.1749660725158
2015-07-01,830.5062767903586,630.924169902187,819.3237759238949,679.9675162716501,657.3966181329029,1299.5911028979729,778.6502090570638,885.2629394347127,1154.4684626824878,574.8899844753797,728.2218278728153,813.9082696543326,1446.5985559593219,1295.9128398575367,1365.41620295339,967.8232719132432,1061.1898362179656,933.8063204710018,875.2201107862267,806.3695232139316,471.6507029838777,886.925948466193,866.1969976170271
2015-10-01,964.2924077889492,561.6038178558388,864.4257121136623,707.9062927823586,592.268303594094,1286.8322459017986,810.780898580016,922.2749826071291,1197.2427826194896,598.6846494098417,788.5728670422527,898.2336140207343,1681.4845217087968,1458.5105295532546,1502.02846083036,1053.6006405834542,1169.7250658290925,1017.0565796184987,939.8247422151858,905.569077447913,542.7603570626529,915.9142460598342,931.1229327522136
2016-01-01,872.368248399363,847.9336587438816,1153.3373629343944,880.4560963028521,766.3175257330788,1397.0741813635266,954.6199724441828,1059.6082871985163,1409.5082109338111,680.44761285889,1055.6382564271514,919.975810152836,1672.088625324899,1466.2358287488246,1595.1409551117783,1137.2877868585165,1233.3065521078597,1109.2697002511677,1053.2899757867963,942.9989362732111,710.3070624426849,972.7080737350444,1033.9590414676231
2016-04-01,849.3616914616211,1209.0672083773227,1239.708202126569,924.4851896931518,1013.3582457094116,1542.6586490417194,971.6266304061238,1173.5396298578992,1430.8186988887605,766.0822419493846,1170.6976434262795,973.4001653542247,1854.1025837171485,1622.6840496872892,1795.6849840863563,1258.3186849616059,1323.2414814983993,1216.5773759040098,1111.5017040023924,1069.231322898154,721.9736772800453,1132.3045681802107,1106.1548834785697
2016-07-01,1252.8308746798532,919.6392891838444,1199.5920515437779,961.6832678714486,1154.719606004854,1669.4301344720386,1109.7596868619873,1276.761572103093,1543.8901662737192,776.293975751758,1287.0928641947849,1116.2065373803307,1976.386383391215,1749.6823025901613,1952.7898919701108,1335.8936957642989,1497.9871775824893,1320.9342738370733,1243.609248928125,1142.2494375951526,777.8122552888151,1212.1990050860413,1228.0881391404985
2016-10-01,1238.573871084701,958.289132940263,1251.8697489532262,981.1812644859767,1026.4399731802423,1698.401872290084,1116.9304404870368,1297.5632706748627,1638.4627770048564,826.9474811771264,1369.133277426166,1227.1024539872956,2345.6102911980033,1871.8195172632547,2079.753793114007,1433.3114558566604,1493.159628229393,1418.3247150464722,1308.239393572693,1211.0257918967661,777.2661134345979,1282.0785006814672,1293.1549223172153
2017-01-01,1078.4124095963978,918.9011064846156,1441.3282325754926,1086.7563712599474,1070.502115528192,1901.7426046684943,1205.7456943774432,1423.546804026535,1910.4430403876001,941.1598172532927,1422.6954668463945,1246.7306980076196,2174.287888200841,1945.4610989698863,2154.778023079179,1527.1445952203896,1612.0933755169656,1488.0100661977485,1386.9637896099077,1163.4882502098983,803.8176615466798,1313.6934898196391,1356.0714221559763